www.pogodaiklimat.ru

Погода и климат >> Архив погоды >> Австралия >> Западная Австралия >> Форрест


ПОГОДА в Форресте

  • Прогноз погоды в Форресте
  • Монитор погоды в Форресте

АРХИВ ПОГОДЫ в Форресте

Время (UTC), дата Ветер
(напр.,м/с)
 
Видим.   Явления Облачность Т
(С)
Тd
(С)
f
(%)
Тe
(С)
Тes
(С)
Комфортность P
(гПа)
Po
(гПа)
Тmin
(С)
Tmax
(С)
R
(мм)
R24
(мм)
S
(см)
10 14.04 З 11 н/о 10/0
[]
+28.7 +9.9 31 +29 +29 жарко 1010.4 991.8
12 14.04 ЮЗ 11 н/о н/о +21.7 +16.4 72 +26 +26 душно 1013.0 994.4
13 14.04 ЮЗ 10 н/о туман местами 10/0
[]
+19.4 +17.7 90 +21 +21 комфорт 1013.3 994.7 +35.2
15 14.04 ЮЗ 7 н/о н/о +18.7 +17.5 93 +19 +19 1012.4 993.8
16 14.04 Ю 3 н/о туман местами 10/0
[]
+19.1 +17.9 93 +21 +21 комфорт 1011.0 992.4
18 14.04 В 2 н/о н/о +19.8 +18.8 94 +23 +23 комфорт 1009.0 990.4
19 14.04 С 4 н/о {туман} 10/0
[]
+19.6 +18.1 91 +22 +22 комфорт 1009.7 991.1
21 14.04 С 4 н/о н/о +18.8 +16.8 88 +20 +20 1010.4 991.8
22 14.04 СЗ 5 н/о н/о +18.4 +16.4 88 +19 +19 1011.3 992.7
00 15.04 СЗ 7 н/о н/о +22.9 +16.7 68 +28 +28 душно 1012.4 993.8
01 15.04 СЗ 8 н/о н/о +25.0 +17.2 62 +29 +29 душно 1012.4 993.8 +18.5
03 15.04 З 6 н/о н/о +26.9 +17.4 56 +31 +31 душно 1012.0 993.4
04 15.04 З 7 н/о 10/10 1000 м
[]
+26.9 +16.8 54 +31 +31 душно 1011.3 992.7
06 15.04 З 6 н/о н/о +28.2 +15.8 47 +31 +31 душно 1010.5 991.9
07 15.04 З 6 н/о 1/1 1500 м
[]
+29.5 +13.3 37 +31 +32 жарко 1010.6 992.0
09 15.04 З 4 н/о н/о +27.3 +11.7 38 +28 +28 жарко 1011.7 993.1
10 15.04 З 3 н/о н/о +23.7 +13.0 51 +26 +26 жарко 1012.6 994.0
12 15.04 ЮВ 6 н/о н/о +20.2 +15.2 73 +23 +23 комфорт 1013.9 995.2
13 15.04 ЮВ 4 н/о н/о +19.0 +14.9 77 +20 +20 1014.2 995.5 +29.7
15 15.04 В 4 н/о н/о +17.5 +15.1 86 +17 +17 1013.6 995.0
16 15.04 В 4 н/о н/о +17.3 +15.3 88 +17 +17 1013.3 994.7
18 15.04 СВ 4 н/о н/о +16.9 +14.9 88 +17 +17 1012.6 994.0
19 15.04 СВ 4 н/о 1/0
[]
+16.8 +15.2 90 +16 +16 1012.6 994.0
21 15.04 СВ 2 н/о н/о +16.2 +14.9 92 +16 +16 1013.1 994.5
22 15.04 штиль 0 н/о н/о +15.4 +14.1 92 +15 +15 1013.4 994.8
00 16.04 СВ 4 н/о н/о +22.9 +16.9 69 +28 +28 душно 1013.8 995.1
01 16.04 СВ 3 н/о н/о +26.2 +15.9 53 +29 +29 жарко 1013.4 994.8 +15.2
03 16.04 СЗ 5 н/о н/о +30.9 +13.2 34 +32 +32 жарко 1012.1 993.5
04 16.04 З 6 н/о н/о +32.1 +11.8 29 +32 +32 жарко 1010.7 992.1
06 16.04 З 8 н/о н/о +33.2 +12.2 28 +33 +33 жарко 1009.3 990.7
07 16.04 СЗ 6 н/о н/о +33.2 +12.2 28 +33 +33 жарко 1009.1 990.5
09 16.04 З 5 н/о н/о +31.0 +12.4 32 +32 +32 жарко 1009.5 990.9
10 16.04 З 4 н/о 6/0
[]
+28.5 +12.8 38 +30 +30 жарко 1010.5 991.9
12 16.04 З 5 н/о н/о +25.4 +12.9 46 +27 +27 жарко 1012.0 993.4
13 16.04 ЮЗ 6 н/о н/о +25.1 +13.0 47 +27 +27 жарко 1012.6 994.0 +34.7
15 16.04 ЮЗ 5 н/о н/о +22.0 +11.4 51 +24 +24 комфорт 1013.0 994.4
16 16.04 ЮЗ 4 н/о н/о +20.2 +10.3 53 +22 +22 комфорт 1013.9 995.2
18 16.04 ЮЗ 5 н/о н/о +18.1 +10.2 60 +18 +18 1014.3 995.6
19 16.04 ЮЗ 5 н/о н/о +17.0 +11.1 68 +16 +16 1015.1 996.4
21 16.04 Ю 5 н/о н/о +16.8 +14.3 85 +16 +16 1017.9 999.2
22 16.04 Ю 4 н/о н/о +15.9 +14.1 89 +15 +15 1019.2 1000.4
00 17.04 Ю 8 н/о н/о +19.6 +14.2 71 +21 +21 комфорт 1020.7 1001.9
01 17.04 Ю 8 н/о н/о +21.1 +14.0 64 +24 +24 комфорт 1020.8 1002.0 +15.9
03 17.04 ЮВ 5 н/о н/о +24.0 +12.9 50 +26 +26 жарко 1020.9 1002.1
04 17.04 Ю 6 н/о 5/5 1000 м
[]
+24.7 +12.3 46 +26 +29 жарко 1020.4 1001.6
06 17.04 ЮВ 5 н/о н/о +24.2 +11.2 44 +26 +26 жарко 1019.9 1001.1
07 17.04 Ю 8 н/о н/о +24.0 +11.7 46 +26 +26 жарко 1020.1 1001.3
09 17.04 ЮВ 9 н/о н/о +20.5 +10.6 53 +22 +22 комфорт 1021.2 1002.4
10 17.04 ЮВ 9 н/о н/о +18.8 +10.1 57 +19 +19 1022.3 1003.5
12 17.04 ЮВ 6 н/о н/о +16.8 +11.3 70 +16 +16 1023.8 1005.0
13 17.04 ЮВ 5 н/о н/о +16.1 +11.3 73 +15 +15 1024.1 1005.3 +26.3
15 17.04 В 4 н/о н/о +14.7 +10.9 78 +13 +13 1023.4 1004.6
16 17.04 ЮВ 4 н/о н/о +13.7 +10.5 81 +12 +12 1023.1 1004.3
18 17.04 В 4 н/о н/о +12.5 +9.7 83 +11 +11 1022.5 1003.7
19 17.04 В 3 н/о н/о +11.7 +9.3 85 +10 +10 1022.8 1004.0
21 17.04 В 4 н/о н/о +10.2 +8.0 86 +8 +8 1023.1 1004.3
22 17.04 В 4 н/о н/о +10.5 +8.3 86 +8 +8 1023.1 1004.3
00 18.04 В 10 н/о н/о +17.8 +11.4 66 +17 +17 1023.2 1004.4
01 18.04 В 9 н/о н/о +19.8 +11.8 60 +21 +21 комфорт 1022.6 1003.8 +10.2
03 18.04 В 7 н/о н/о +23.9 +11.3 45 +25 +25 комфорт 1020.8 1002.0
04 18.04 В 7 н/о н/о +26.1 +10.7 38 +27 +27 жарко 1018.9 1000.2
06 18.04 В 7 н/о н/о +28.6 +10.3 32 +29 +29 жарко 1016.2 997.5
07 18.04 В 6 н/о н/о +29.8 +10.4 30 +30 +30 жарко 1015.8 997.1
09 18.04 СВ 8 н/о н/о +27.1 +9.9 34 +28 +28 жарко 1015.2 996.5
10 18.04 СВ 5 н/о н/о +25.4 +10.1 38 +26 +26 жарко 1015.7 997.0
12 18.04 В 4 н/о н/о +23.6 +10.3 43 +25 +25 комфорт 1015.8 997.1
13 18.04 ЮВ 4 н/о 10/0
[]
+21.6 +11.0 51 +23 +23 комфорт 1016.4 997.7 +30.3
15 18.04 В 5 н/о н/о +21.4 +11.4 53 +23 +23 комфорт 1014.6 995.9
16 18.04 СВ 4 н/о 10/0
[]
+22.4 +11.5 50 +25 +25 комфорт 1013.9 995.2
18 18.04 СВ 10 н/о н/о +24.1 +11.8 46 +26 +26 жарко 1011.3 992.7
19 18.04 З 6 н/о 9/0
[]
+22.1 +15.5 66 +26 +26 душно 1013.2 994.6
21 18.04 В 6 н/о н/о +21.9 +13.5 59 +25 +25 комфорт 1011.4 992.8
22 18.04 В 5 н/о 9/0
[]
+21.8 +14.7 64 +25 +25 комфорт 1012.0 993.4
00 19.04 В 4 н/о н/о +22.9 +11.9 50 +25 +25 комфорт 1012.2 993.6
01 19.04 СВ 5 н/о 10/0 2000 м
[]
+24.1 +10.7 43 +25 +27 комфорт 1011.8 993.2 +17.9
03 19.04 С 13 н/о н/о +30.3 +5.6 21 +29 +29 жарко 1010.2 991.6
04 19.04 С 11 н/о 10/0
[]
+29.0 +8.7 28 +29 +29 жарко 1008.9 990.3
06 19.04 С 14 н/о н/о +24.6 +13.8 51 +27 +27 жарко 1008.3 989.7
07 19.04 С 8 н/о 10/0
[]
+27.9 +10.1 33 +28 +29 жарко 1007.0 988.5
09 19.04 С 6 н/о н/о +28.0 +7.3 27 +27 +27 жарко 1007.5 989.0
10 19.04 С 10 н/о 10/10 1500 м
[]
+26.4 +14.2 47 +29 +29 жарко 1009.9 991.3
12 19.04 Ю 9 н/о н/о +17.9 +15.5 86 +17 +17 1013.0 994.4
13 19.04 Ю 8 н/о {туман} 9/9 1500 м
[]
+17.3 +14.9 86 +16 +16 1014.6 995.9 +30.8
15 19.04 Ю 6 н/о н/о +15.7 +14.6 93 +14 +14 1014.5 995.8
16 19.04 Ю 5 н/о {туман} 9/9 1000 м
[]
+15.8 +14.3 91 +15 +15 1014.8 996.1
18 19.04 Ю 3 н/о н/о +15.2 +13.7 91 +14 +14 1014.9 996.2
19 19.04 Ю 3 н/о в посл. час дождь {туман} 10/10 1500 м
[]
+15.1 +13.6 91 +15 +15 1014.9 996.2
21 19.04 ЮЗ 8 н/о н/о +12.8 +11.4 91 +10 +10 1015.9 997.2
22 19.04 ЮЗ 5 н/о в посл. час дождь {туман} 10/10 1000 м
[]
+13.3 +9.9 80 +11 +11 1016.6 997.9
00 20.04 ЮЗ 9 н/о н/о +12.4 +5.1 61 +9 +9 1019.0 1000.3
01 20.04 ЮЗ 7 н/о {туман} 10/0 2000 м
[]
+12.3 +3.8 56 +10 +11 1019.4 1000.6 +12.5
03 20.04 ЮЗ 10 н/о н/о +14.6 +2.8 45 +12 +12 1019.6 1000.8
04 20.04 ЮЗ 10 н/о {туман} 1/0 2000 м
[]
+16.3 0.0 33 +15 +15 1018.8 1000.1
06 20.04 З 10 н/о н/о +17.6 -0.6 29 +16 +16 1018.2 999.5
07 20.04 З 9 н/о {туман} н/о +17.4 -2.3 26 +16 +16 1018.4 999.7
09 20.04 ЮЗ 7 н/о н/о +15.4 -3.0 28 +14 +14 1019.7 1000.9
10 20.04 ЮЗ 5 н/о н/о +12.8 -1.1 38 +11 +11 1020.8 1002.0
12 20.04 ЮЗ 4 н/о н/о +9.4 +1.1 56 +7 +7 1022.6 1003.8
13 20.04 ЮЗ 4 н/о н/о +8.9 +1.6 60 +6 +6 1023.1 1004.3 +18.1
15 20.04 ЮЗ 5 н/о н/о +7.7 +3.4 74 +4 +4 1022.8 1004.0
16 20.04 ЮЗ 5 н/о н/о +7.9 +4.1 77 +4 +4 1023.1 1004.3
18 20.04 З 4 н/о н/о +5.5 +3.5 87 +2 +2 1023.0 1004.2
19 20.04 З 4 н/о н/о +5.6 +3.8 88 +2 +2 1023.2 1004.4
21 20.04 З 5 н/о н/о +5.4 +3.9 90 +1 +1 1023.9 1005.1
22 20.04 З 4 н/о н/о +5.5 +3.7 88 +1 +1 1024.6 1005.7
00 21.04 ЮЗ 6 н/о н/о +11.6 +6.7 72 +9 +9 1026.2 1007.3
01 21.04 ЮЗ 4 н/о н/о +14.9 +7.0 59 +14 +14 1026.5 1007.6 +5.3
03 21.04 ЮЗ 5 н/о н/о +16.8 +5.4 47 +16 +16 1026.2 1007.3
04 21.04 Ю 5 н/о 10/10 1000 м
[]
+17.4 +5.0 44 +17 +17 1025.3 1006.4
06 21.04 ЮВ 5 н/о н/о +17.8 +5.7 45 +17 +17 1024.4 1005.6
07 21.04 Ю 6 н/о 10/10 1500 м
[]
+17.4 +6.9 50 +17 +17 1024.7 1005.8
09 21.04 ЮВ 6 н/о н/о +16.2 +7.2 55 +15 +15 1025.4 1006.5

 

Местоположение метеостанции Форрест (Западная Австралия, Австралия): широта -30.83 долгота 128.11 высота над уровнем моря 160 м.

В архиве по умолчанию представлена погода в Форресте за последнюю неделю. Архивные данные за месяц целиком и за предыдущие месяцы, начиная с января 2011 года, Вы можете получить, выбрав интересующий диапазон дат из раскрывающегося списка и нажав кнопку "Ввод!".


*Определитесь, кто Вы:
робот инопланетянин человек

Внимание! Время в таблицах - всемирное. Для получения местного времени необходимо прибавить поправку, которая равна 8 ч.

Смотрите также архив погоды в соседних городах и на ближайших метеорологических станциях:

Погода в Евкле (Западная Австралия, Австралия) (120 км)
Погода в Ред Рокс Пойнт (Западная Австралия, Австралия) (162 км)
Погода в Наллаборе (Южная Австралия, Австралия) (274 км)
Погода в Уорбертоне (Западная Австралия, Австралия) (544 км)
Погода в Сидуне (Южная Австралия, Австралия) (550 км)
Погода в Лавертоне (Западная Австралия, Австралия) (603 км)
Погода в Таркуле (Южная Австралия, Австралия) (618 км)
Погода в Норсмане (Западная Австралия, Австралия) (622 км)
Погода в Калгурли-Боулдере (Западная Австралия, Австралия) (636 км)
Погода в Эрнабелле (Южная Австралия, Австралия) (644 км)

Пояснения к столбцам:

Ветер - указаны скорость ветра в м/с - средняя за 10 мин, порывы в срок и между сроками (в фигурных скобках) и направление, откуда дует ветер: С - северный, СВ - северо-восточный, В - восточный, ЮВ - юго-восточный, Ю - южный, ЮЗ - юго-западный, З - западный, СЗ - северо-западный.
Видимость - горизонтальная дальность видимости в метрах или километрах. При видимости от 1 до 10 км при отсутствии осадков обычно наблюдается дымка, при ухудшении видимости до 1 км и менее - туман. В сухую погоду видимость может ухудшаться дымом, пылью или мглою.
Явления - указаны атмосферные явления, наблюдавшиеся в срок или в последний час перед сроком; фигурными скобками обозначены явления, наблюдавшиеся между сроками (за 1-3 часа до срока); квадратными скобками обозначены град или гололедные отложения с указанием их диаметра в мм.
Облачность - указаны через наклонную черту общая и нижняя облачность в баллах и высота нижней границы облаков в метрах; квадратными скобками обозначены формы облаков: Ci - перистые, Cs - перисто-слоистые, Cc - перисто-кучевые, Ac - высококучевые, As - высокослоистые, Sc - слоисто-кучевые, Ns - слоисто-дождевые, Cu - кучевые, Cb - кучево-дождевые. Подробнее классификацию облаков см. в Атласе облаков (PDF).
T - Температура воздуха - температура, измеренная на высоте 2 м над землей.
Td - Температура точки росы - температура, при понижении до которой содержащийся в воздухе водяной пар достигнет насыщения.
f - Относительная влажность воздуха - влажноcть воздуха, измеренная на высоте 2 м над землей.
Te - Эффективная температура - температура, которую ощущает одетый по сезону человек в тени. Характеристика душности погоды. При расчете учитывается влияние влажности воздуха и скорости ветра на теплоощущения человека.
Tes - Эффективная температура на солнце - температура, которую ощущает человек, с поправкой на солнечный нагрев. Характеристика знойности погоды. Зависит от высоты солнца над горизонтом, облачности и скорости ветра. Ночью, в пасмурную погоду, а также при ветре 12 м/с и более поправка равна нулю.
P - Атмосферное давление - приведенное к уровню моря атмосферное давление.
Po - Атмосферное давление - измеренное на уровне метеостанции атмосферное давление.
Tmin - Минимальная температура - минимум температуры воздуха на высоте 2 м над землей.
Tmax - Максимальная температура - максимум температуры воздуха на высоте 2 м над землей.
R - Количество осадков - Количество выпавших осадков за период времени, мм. При наведении курсора мыши на число - период времени, за который выпало указанное количество осадков.
R24 - Количество осадков - Количество выпавших осадков за 24 часа, мм.
S - Снежный покров - Высота снежного покрова, см. При наведении курсора мыши на число - состояние снежного покрова и степень покрытия местности в баллах.